TimeMDT,TemperatureF,Dew PointF,Humidity,Sea Level PressureIn,VisibilityMPH,Wind Direction,Wind SpeedMPH,Gust SpeedMPH,PrecipitationIn,Events,Conditions,WindDirDegrees,DateUTC
12:53 AM,39.9,37.9,93,30.04,10.0,Calm,Calm,-,N/A,,Scattered Clouds,0,2013-08-08 06:53:00
1:53 AM,39.9,37.9,93,30.01,10.0,NE,3.5,-,N/A,,Scattered Clouds,50,2013-08-08 07:53:00
2:53 AM,42.1,37.9,85,29.96,10.0,NE,8.1,-,N/A,,Clear,40,2013-08-08 08:53:00
3:53 AM,42.1,37.0,82,29.96,10.0,NE,6.9,-,N/A,,Clear,50,2013-08-08 09:53:00
4:53 AM,42.1,37.0,82,29.97,10.0,NE,6.9,-,N/A,,Clear,50,2013-08-08 10:53:00
5:53 AM,43.0,37.0,80,29.96,10.0,NNE,4.6,-,N/A,,Mostly Cloudy,30,2013-08-08 11:53:00
6:53 AM,44.1,37.0,76,29.95,10.0,North,3.5,-,N/A,,Overcast,360,2013-08-08 12:53:00
7:53 AM,48.0,37.0,66,29.97,10.0,North,6.9,-,N/A,,Overcast,10,2013-08-08 13:53:00
8:53 AM,53.1,39.0,59,29.96,10.0,North,4.6,-,N/A,,Partly Cloudy,350,2013-08-08 14:53:00
9:53 AM,57.0,37.0,47,29.96,10.0,NNW,11.5,-,N/A,,Scattered Clouds,340,2013-08-08 15:53:00
10:53 AM,59.0,35.1,41,29.94,-9999.0,NNW,9.2,16.1,N/A,,Mostly Cloudy,340,2013-08-08 16:53:00
11:53 AM,55.9,30.0,37,29.97,10.0,North,-9999.0,-,N/A,,Overcast,0,2013-08-08 17:53:00
12:15 PM,55.4,33.8,44,30.39,10.0,WSW,10.4,-,N/A,Thunderstorm,Overcast,250,2013-08-08 18:15:00
12:53 PM,55.0,36.0,49,29.99,10.0,NNW,13.8,25.3,N/A,,Overcast,340,2013-08-08 18:53:00
1:53 PM,51.1,37.0,59,30.03,10.0,NNW,15.0,-,0.00,,Overcast,340,2013-08-08 19:53:00
2:53 PM,52.0,37.0,57,30.03,10.0,NNW,15.0,21.9,N/A,,Overcast,340,2013-08-08 20:53:00
3:53 PM,50.0,39.0,66,30.05,10.0,North,6.9,-,0.00,Rain,Light Rain,360,2013-08-08 21:53:00
4:53 PM,52.0,39.9,63,30.02,10.0,North,5.8,-,0.01,,Overcast,350,2013-08-08 22:53:00
5:53 PM,-9999,-9999,N/A,30.43,10.0,North,4.6,-,N/A,,Overcast,350,2013-08-08 23:53:00
6:53 PM,51.1,41.0,68,30.02,10.0,Calm,Calm,-,N/A,,Overcast,0,2013-08-09 00:53:00
7:53 PM,46.0,39.9,79,30.05,10.0,South,12.7,-,N/A,,Overcast,190,2013-08-09 01:53:00
8:53 PM,45.0,39.0,80,30.04,10.0,Calm,Calm,-,N/A,,Overcast,0,2013-08-09 02:53:00
9:53 PM,42.1,37.9,85,30.04,10.0,ENE,6.9,-,N/A,,Clear,60,2013-08-09 03:53:00
10:53 PM,43.0,37.9,82,30.03,10.0,NE,4.6,-,N/A,,Overcast,50,2013-08-09 04:53:00
11:53 PM,45.0,37.9,76,30.03,10.0,Calm,Calm,-,N/A,,Overcast,0,2013-08-09 05:53:00